Ely, MN

10:24 AM CDT on June 26, 2017 (GMT -0500)
Ely Municipal

Weather History for KELO - September, 2012

Change the Weather History Date:

Wednesday, September 19, 2012

  Actual Average Record
Temperature  
Mean Temperature 50 °F -  
Max Temperature 59 °F 62 °F 82 °F (2004)
Min Temperature 41 °F 41 °F 26 °F (1996)
Degree Days  
Heating Degree Days 15    
Moisture  
Dew Point 40 °F    
Average Humidity 73    
Maximum Humidity 93    
Minimum Humidity 54    
Precipitation  
Precipitation 0.12 in - - ()
Sea Level Pressure  
Sea Level Pressure 29.60 in    
Wind  
Wind Speed 9 mph (SW)    
Max Wind Speed 18 mph    
Max Gust Speed 29 mph    
Visibility 10 miles    
Events Rain , Thunderstorm    
Averages and records for this station are not official NWS values.
T = Trace of Precipitation, MM = Missing Value Source: NWS Daily Summary

Daily Weather History Graph

Daily Weather History Graph

Search for Another Location

Airport or City:

Trip Planner

Search our weather history database for the weather conditions in past years. The results will help you decide how hot, cold, wet, or windy it might be!

Date:

Astronomy

Sep. 19, 2012 Rise Set
Actual Time 6:50 AM CDT 7:10 PM CDT
Civil Twilight 6:19 AM CDT 7:41 PM CDT
Nautical Twilight 5:43 AM CDT 8:17 PM CDT
Astronomical Twilight 5:05 AM CDT 8:55 PM CDT
Moon 11:24 AM CDT (9/19) 8:55 PM CDT (9/19)
Length of Visible Light 13h 21m
Length of Day
12h 19m
Waxing Crescent, 17% of the Moon is Illuminated
Sep 19
Waxing Crescent
Sep 22
First Quarter
Sep 29
Full
Oct 8
Last Quarter
Oct 15
New

Hourly Weather History & Observations

Time (CDT) Temp. Windchill Dew Point Humidity Pressure Visibility Wind Dir Wind Speed Gust Speed Precip Events Conditions
12:13 AM 41.0 °F 37.1 °F 30.2 °F 65% 29.82 in 10.0 mi South 5.8 mph - N/A   Overcast
12:33 AM 42.8 °F 39.3 °F 30.2 °F 61% 29.81 in 10.0 mi South 5.8 mph - N/A   Mostly Cloudy
12:53 AM 42.8 °F 40.1 °F 30.2 °F 61% 29.81 in 10.0 mi South 4.6 mph - N/A   Mostly Cloudy
1:13 AM 42.8 °F 38.6 °F 32.0 °F 66% 29.78 in 10.0 mi SSE 6.9 mph - N/A   Mostly Cloudy
1:33 AM 42.8 °F 38.6 °F 32.0 °F 66% 29.78 in 10.0 mi SSE 6.9 mph - N/A   Overcast
1:53 AM 44.6 °F 41.4 °F 32.0 °F 61% 29.77 in 10.0 mi South 5.8 mph - N/A   Overcast
2:13 AM 44.6 °F 42.2 °F 33.8 °F 66% 29.77 in 10.0 mi South 4.6 mph - N/A Rain Light Rain
2:33 AM 42.8 °F 38.6 °F 35.6 °F 76% 29.75 in 10.0 mi SSE 6.9 mph - N/A Rain Light Rain
2:53 AM 42.8 °F 40.1 °F 37.4 °F 81% 29.73 in 10.0 mi SSE 4.6 mph - 0.01 in Rain Light Rain
3:13 AM 42.8 °F 38.6 °F 37.4 °F 81% 29.72 in 10.0 mi SSE 6.9 mph - N/A   Mostly Cloudy
3:33 AM 42.8 °F 38.0 °F 37.4 °F 81% 29.70 in 10.0 mi SSE 8.1 mph - N/A   Mostly Cloudy
3:53 AM 42.8 °F 37.5 °F 35.6 °F 76% 29.68 in 10.0 mi SSE 9.2 mph - N/A   Overcast
4:13 AM 44.6 °F 39.7 °F 35.6 °F 71% 29.66 in 10.0 mi SSE 9.2 mph - N/A Rain Light Rain
4:33 AM 44.6 °F 38.4 °F 33.8 °F 66% 29.64 in 10.0 mi SSE 12.7 mph - N/A   Overcast
4:53 AM 44.6 °F 39.7 °F 33.8 °F 66% 29.64 in 10.0 mi SSE 9.2 mph - N/A   Overcast
5:13 AM 44.6 °F 38.8 °F 33.8 °F 66% 29.60 in 10.0 mi SSE 11.5 mph 17.3 mph N/A   Mostly Cloudy
5:33 AM 44.6 °F 37.8 °F 33.8 °F 66% 29.60 in 10.0 mi SSE 15.0 mph 19.6 mph N/A   Mostly Cloudy
5:53 AM 44.6 °F 38.8 °F 33.8 °F 66% 29.59 in 10.0 mi South 11.5 mph 23.0 mph N/A   Scattered Clouds
6:13 AM 44.6 °F 38.1 °F 33.8 °F 66% 29.58 in 10.0 mi South 13.8 mph - N/A   Mostly Cloudy
6:33 AM 44.6 °F 39.2 °F 33.8 °F 66% 29.57 in 10.0 mi South 10.4 mph - N/A   Mostly Cloudy
6:53 AM 44.6 °F 38.8 °F 33.8 °F 66% 29.56 in 10.0 mi South 11.5 mph - N/A Rain Light Rain
7:12 AM 44.6 °F 40.7 °F 33.8 °F 66% 29.56 in 10.0 mi South 6.9 mph - N/A   Mostly Cloudy
7:33 AM 46.4 °F 40.7 °F 33.8 °F 62% 29.56 in 10.0 mi South 12.7 mph 24.2 mph N/A   Scattered Clouds
7:53 AM 46.4 °F 41.9 °F 33.8 °F 62% 29.55 in 10.0 mi South 9.2 mph - N/A   Scattered Clouds
8:13 AM 48.2 °F - 33.8 °F 58% 29.55 in 10.0 mi South 8.1 mph 19.6 mph N/A   Clear
8:30 AM 48.2 °F - 33.8 °F 58% 29.54 in 10.0 mi SSW 10.4 mph 20.7 mph N/A   Mostly Cloudy
8:53 AM 48.2 °F - 35.6 °F 62% 29.53 in 10.0 mi SSW 12.7 mph 17.3 mph N/A   Overcast
9:13 AM 48.2 °F - 35.6 °F 62% 29.53 in 10.0 mi SSW 9.2 mph 16.1 mph N/A   Overcast
9:33 AM 50.0 °F - 35.6 °F 58% 29.52 in 10.0 mi SW 12.7 mph - N/A   Overcast
9:53 AM 51.8 °F - 37.4 °F 58% 29.51 in 10.0 mi SSW 8.1 mph - N/A   Overcast
10:13 AM 51.8 °F - 37.4 °F 58% 29.51 in 10.0 mi SSW 9.2 mph - N/A   Mostly Cloudy
10:33 AM 53.6 °F - 37.4 °F 54% 29.51 in 10.0 mi WSW 10.4 mph - N/A   Mostly Cloudy
10:53 AM 53.6 °F - 39.2 °F 58% 29.51 in 10.0 mi SW 9.2 mph - N/A   Overcast
11:12 AM 55.4 °F - 39.2 °F 54% 29.51 in 10.0 mi SW 8.1 mph - N/A   Overcast
11:33 AM 55.4 °F - 39.2 °F 54% 29.51 in 10.0 mi WSW 9.2 mph 17.3 mph N/A   Overcast
11:53 AM 57.2 °F - 41.0 °F 55% 29.51 in 10.0 mi SW 10.4 mph - N/A   Overcast
12:12 PM 57.2 °F - 42.8 °F 59% 29.51 in 10.0 mi WSW 8.1 mph - N/A   Overcast
12:33 PM 59.0 °F - 42.8 °F 55% 29.51 in 10.0 mi WSW 9.2 mph - N/A   Mostly Cloudy
12:53 PM 59.0 °F - 44.6 °F 59% 29.51 in 10.0 mi WSW 6.9 mph 16.1 mph N/A   Mostly Cloudy
1:12 PM 59.0 °F - 44.6 °F 59% 29.51 in 10.0 mi West 6.9 mph - N/A   Overcast
1:33 PM 51.8 °F - 48.2 °F 88% 29.53 in 7.0 mi WSW 5.8 mph 12.7 mph N/A Rain Light Rain
1:53 PM 51.8 °F - 48.2 °F 88% 29.52 in 10.0 mi WSW 6.9 mph - N/A   Scattered Clouds
2:12 PM 55.4 °F - 50.0 °F 82% 29.52 in 10.0 mi WSW 9.2 mph - N/A Thunderstorm Clear
2:33 PM 57.2 °F - 48.2 °F 72% 29.52 in 10.0 mi West 6.9 mph 18.4 mph N/A   Mostly Cloudy
2:53 PM 57.2 °F - 46.4 °F 67% 29.51 in 10.0 mi West 11.5 mph 23.0 mph N/A   Overcast
3:13 PM 53.6 °F - 48.2 °F 82% 29.53 in 7.0 mi West 9.2 mph 19.6 mph 0.02 in Rain Light Rain
3:33 PM 53.6 °F - 48.2 °F 82% 29.52 in 10.0 mi West 10.4 mph - 0.02 in   Mostly Cloudy
3:53 PM 57.2 °F - 48.2 °F 72% 29.53 in 10.0 mi WNW 8.1 mph 18.4 mph 0.02 in   Overcast
4:13 PM 53.6 °F - 48.2 °F 82% 29.55 in 7.0 mi WNW 11.5 mph 23.0 mph 0.01 in Rain Rain
4:33 PM 51.8 °F - 46.4 °F 82% 29.55 in 10.0 mi West 13.8 mph 20.7 mph 0.01 in   Mostly Cloudy
4:53 PM 53.6 °F - 44.6 °F 72% 29.56 in 10.0 mi West 18.4 mph 26.5 mph 0.02 in   Scattered Clouds
5:13 PM 53.6 °F - 44.6 °F 72% 29.57 in 10.0 mi WNW 12.7 mph 24.2 mph N/A   Mostly Cloudy
5:33 PM 51.8 °F - 42.8 °F 71% 29.58 in 10.0 mi WNW 15.0 mph 28.8 mph N/A   Overcast
5:53 PM 51.8 °F - 42.8 °F 71% 29.58 in 10.0 mi WNW 9.2 mph - N/A   Mostly Cloudy
6:13 PM 51.8 °F - 42.8 °F 71% 29.59 in 10.0 mi WNW 11.5 mph 23.0 mph N/A   Mostly Cloudy
6:33 PM 50.0 °F - 44.6 °F 82% 29.60 in 4.0 mi WNW 12.7 mph 24.2 mph N/A Rain Rain
6:53 PM 48.2 °F - 46.4 °F 93% 29.60 in 10.0 mi WNW 5.8 mph 16.1 mph 0.01 in Rain Rain
7:12 PM 48.2 °F - 46.4 °F 93% 29.61 in 5.0 mi WNW 10.4 mph 18.4 mph N/A   Drizzle
7:33 PM 48.2 °F - 44.6 °F 87% 29.61 in 10.0 mi West 11.5 mph 18.4 mph N/A Rain Rain
7:52 PM 48.2 °F - 44.6 °F 87% 29.62 in 10.0 mi West 10.4 mph - N/A Rain Rain
8:13 PM 48.2 °F - 44.6 °F 87% 29.62 in 10.0 mi West 10.4 mph 19.6 mph N/A   Light Drizzle
8:33 PM 48.2 °F - 44.6 °F 87% 29.62 in 10.0 mi West 11.5 mph 17.3 mph 0.01 in Rain Light Rain
8:52 PM 46.4 °F 40.4 °F 44.6 °F 93% 29.62 in 10.0 mi West 13.8 mph 20.7 mph 0.01 in   Drizzle
9:13 PM 46.4 °F 40.7 °F 44.6 °F 93% 29.62 in 7.0 mi West 12.7 mph 20.7 mph N/A Rain Light Rain
9:33 PM 46.4 °F 40.4 °F 44.6 °F 93% 29.61 in 10.0 mi West 13.8 mph 19.6 mph N/A Rain Light Rain
9:52 PM 46.4 °F 41.9 °F 44.6 °F 93% 29.61 in 10.0 mi West 9.2 mph 18.4 mph 0.01 in Rain Light Rain
10:13 PM 46.4 °F 41.5 °F 44.6 °F 93% 29.61 in 10.0 mi West 10.4 mph 16.1 mph 0.01 in Rain Light Rain
10:32 PM 46.4 °F 41.9 °F 44.6 °F 93% 29.61 in 10.0 mi West 9.2 mph 17.3 mph 0.02 in Rain Light Rain
10:53 PM 46.4 °F 40.4 °F 44.6 °F 93% 29.61 in 10.0 mi West 13.8 mph 18.4 mph 0.03 in Rain Light Rain
11:13 PM 46.4 °F 41.1 °F 44.6 °F 93% 29.61 in 5.0 mi West 11.5 mph 16.1 mph N/A Rain Light Rain
11:32 PM 46.4 °F 41.9 °F 44.6 °F 93% 29.62 in 10.0 mi WNW 9.2 mph 17.3 mph 0.01 in Rain Light Rain
11:53 PM 46.4 °F 41.5 °F 44.6 °F 93% 29.62 in 10.0 mi West 10.4 mph 16.1 mph 0.01 in   Drizzle